GSAT0213 (GALILEO 17)

Last updated on Fri Sep 04 2026 00:02:48 GMT+0000 (Coordinated Universal Time)

1 41861U 16069C 26245.98194434 .00000016 00000+0 00000+0 0 9998 2 41861 55.5467 98.9349 0002427 330.8432 29.2305 1.70474236 60847
UTC large
Height (km)
Speed (km/s)
/
Latitude / Longitude
Inclination (degrees)
Orbital Period (minutes)
Azimuth
Elevation
Range (km)
Doppler Factor

Next 0 passes for location: London (51.5072 / 0.1276)

No passes found over London.
GSAT0213 (GALILEO 17)